This is the latest recevied weather packets stored in our database for station/object K3HM. If no packets are shown the sender has not sent any weather packets the latest 10 day(s).
| Time | Temp. | Humidity | Pressure | Rain* | Wind** | Luminosity | Snow |
|---|---|---|---|---|---|---|---|
| 1777553318 | 7.22° C | 90% | 1010.7 hPa | 0 mm | - | 54 W/m² | - |
| 1777553014 | 7.78° C | 89% | 1010.5 hPa | 0 mm | - | 33 W/m² | - |
| 1777552709 | 7.78° C | 89% | 1010.3 hPa | 0 mm | - | 63 W/m² | - |
| 1777552406 | 7.78° C | 90% | 1010.4 hPa | 0 mm | - | 127 W/m² | - |
| 1777552102 | 7.78° C | 91% | 1010.4 hPa | 0 mm | - | 90 W/m² | - |
| 1777551800 | 7.78° C | 90% | 1010.5 hPa | 0 mm | - | 102 W/m² | - |
| 1777551497 | 7.78° C | 91% | 1010.3 hPa | 0 mm | - | 150 W/m² | - |
| 1777551193 | 7.78° C | 92% | 1010.1 hPa | 0 mm | - | 80 W/m² | - |
| 1777550891 | 6.67° C | 94% | 1010.2 hPa | 0 mm | - | 177 W/m² | - |
| 1777550587 | 6.67° C | 94% | 1010.3 hPa | 0 mm | - | 98 W/m² | - |
| 1777550283 | 6.67° C | 95% | 1010.4 hPa | 0 mm | - | 115 W/m² | - |
| 1777549980 | 6.67° C | 95% | 1010.2 hPa | 0 mm | - | 68 W/m² | - |
| 1777549676 | 6.67° C | 95% | 1010.2 hPa | 0 mm | - | 47 W/m² | - |
| 1777549371 | 6.67° C | 96% | 1010.2 hPa | 0 mm | - | 47 W/m² | - |
| 1777549069 | 6.67° C | 97% | 1010.2 hPa | 0 mm | - | 72 W/m² | - |
| 1777548765 | 6.67° C | 97% | 1010 hPa | 0 mm | - | 91 W/m² | - |
| 1777548463 | 6.67° C | 98% | 1010 hPa | 0 mm | - | 37 W/m² | - |
| 1777548159 | 6.67° C | 98% | 1010 hPa | 0 mm | - | 39 W/m² | - |
| 1777547855 | 6.11° C | 98% | 1010 hPa | 0 mm | - | 51 W/m² | - |
| 1777547551 | 6.11° C | 98% | 1010 hPa | 0 mm | - | 34 W/m² | - |
| 1777547249 | 6.11° C | 98% | 1010 hPa | 0 mm | - | 32 W/m² | - |
| 1777546946 | 6.11° C | 98% | 1010 hPa | 0 mm | - | 19 W/m² | - |
| 1777546643 | 6.11° C | 98% | 1009.9 hPa | 0 mm | - | 18 W/m² | - |
| 1777546339 | 6.11° C | 98% | 1010 hPa | 0 mm | - | 17 W/m² | - |
| 1777546037 | 6.11° C | 99% | 1010 hPa | 0 mm | - | 15 W/m² | - |
* Rain latest hour (hover to see other rain measurements)
** Current wind speed in m/s (hover to see current wind gust speed)